Weather History for Cincinnati, OH

Change the Weather History Date:

Saturday, December 7, 2013

  Actual Average Record
Temperature  
Mean Temperature 24 °F -  
Max Temperature 28 °F 45 °F 71 °F (1998)
Min Temperature 19 °F 30 °F 3 °F (1977)
Degree Days  
Heating Degree Days 42    
Moisture  
Dew Point 19 °F    
Average Humidity 77    
Maximum Humidity 93    
Minimum Humidity 63    
Precipitation  
Precipitation 0.00 in - - ()
Sea Level Pressure  
Sea Level Pressure 30.56 in    
Wind  
Wind Speed 6 mph (NNE)    
Max Wind Speed 13 mph    
Max Gust Speed -    
Visibility 10 miles    
Events      
Averages and records for this station are not official NWS values.
T = Trace of Precipitation, MM = Missing Value Source: NWS Daily Summary

Daily Weather History Graph

Daily Weather History Graph

Search for Another Location

Airport:

Trip Planner

Search our weather history database for the weather conditions in past years. The results will help you decide how hot, cold, wet, or windy it might be!

Date:

Astronomy

Dec. 07, 2013 Rise Set
Actual Time 7:43 AM EST 5:14 PM EST
Civil Twilight 7:13 AM EST 5:44 PM EST
Nautical Twilight 6:40 AM EST 6:18 PM EST
Astronomical Twilight 6:08 AM EST 6:50 PM EST
Moon 11:29 AM EST (12/7) 10:53 PM EST (12/7)
Length of Visible Light 10h 30m
Length of Day
9h 31m
Waxing Crescent, 29% of the Moon is Illuminated
Dec 7
Waxing Crescent
Dec 9
First Quarter
Dec 17
Full
Dec 25
Last Quarter
Jan 1
New

Hourly Weather History & Observations

Time (EST) Temp. Windchill Dew Point Humidity Pressure Visibility Wind Dir Wind Speed Gust Speed Precip Events Conditions
12:53 AM 28.0 °F 22.8 °F 24.1 °F 85% 30.42 in 10.0 mi North 4.6 mph - N/A   Overcast
1:53 AM 28.0 °F 21.7 °F 24.1 °F 85% 30.44 in 10.0 mi NNW 5.8 mph - N/A   Overcast
2:01 AM 28.4 °F 22.2 °F 24.8 °F 86% 30.42 in 9.0 mi North 5.8 mph - N/A   Overcast
2:31 AM 26.6 °F 17.5 °F 24.8 °F 93% 30.44 in 10.0 mi NNW 9.2 mph - N/A   Overcast
2:53 AM 27.0 °F 18.0 °F 23.0 °F 85% 30.46 in 10.0 mi NNW 9.2 mph - N/A   Mostly Cloudy
3:50 AM 26.6 °F 18.2 °F 23.0 °F 86% 30.47 in 9.0 mi NNW 8.1 mph - N/A   Overcast
3:53 AM 27.0 °F 18.0 °F 23.0 °F 85% 30.49 in 10.0 mi NNW 9.2 mph - N/A   Overcast
4:07 AM 26.6 °F 17.5 °F 23.0 °F 86% 30.47 in 10.0 mi North 9.2 mph - N/A   Overcast
4:50 AM 26.6 °F 15.7 °F 21.2 °F 80% 30.49 in 10.0 mi NNW 12.7 mph - N/A   Overcast
4:53 AM 27.0 °F 17.3 °F 21.0 °F 78% 30.51 in 10.0 mi North 10.4 mph - N/A   Overcast
5:53 AM 26.1 °F 16.8 °F 19.9 °F 78% 30.53 in 10.0 mi NNW 9.2 mph - N/A   Overcast
6:53 AM 23.0 °F 15.8 °F 19.0 °F 85% 30.57 in 10.0 mi North 5.8 mph - N/A   Partly Cloudy
7:53 AM 21.9 °F 14.5 °F 17.1 °F 82% 30.59 in 8.0 mi North 5.8 mph - N/A   Clear
8:53 AM 21.9 °F 12.5 °F 17.1 °F 82% 30.61 in 7.0 mi North 8.1 mph - N/A   Clear
9:53 AM 24.1 °F 17.0 °F 17.1 °F 75% 30.63 in 9.0 mi NNE 5.8 mph - N/A   Clear
10:53 AM 26.1 °F 18.4 °F 18.0 °F 71% 30.63 in 10.0 mi NE 6.9 mph - N/A   Scattered Clouds
11:12 AM 26.6 °F 21.2 °F 17.6 °F 69% 30.62 in 10.0 mi NNE 4.6 mph - N/A   Mostly Cloudy
11:43 AM 24.8 °F 16.9 °F 17.6 °F 74% 30.61 in 10.0 mi NE 6.9 mph - N/A   Scattered Clouds
11:53 AM 26.1 °F 18.4 °F 17.1 °F 69% 30.63 in 10.0 mi NE 6.9 mph - N/A   Mostly Cloudy
12:30 PM 26.6 °F 20.0 °F 15.8 °F 64% 30.60 in 10.0 mi NNE 5.8 mph - N/A   Scattered Clouds
12:53 PM 28.0 °F 20.0 °F 17.1 °F 63% 30.61 in 10.0 mi NNE 8.1 mph - N/A   Scattered Clouds
1:53 PM 27.0 °F 21.6 °F 17.1 °F 66% 30.59 in 10.0 mi ENE 4.6 mph - N/A   Scattered Clouds
2:53 PM 28.0 °F 21.7 °F 18.0 °F 66% 30.59 in 10.0 mi Variable 5.8 mph - N/A   Mostly Cloudy
3:53 PM 27.0 °F 23.0 °F 17.1 °F 66% 30.59 in 10.0 mi NNE 3.5 mph - N/A   Mostly Cloudy
4:53 PM 26.1 °F 20.5 °F 17.1 °F 69% 30.61 in 10.0 mi North 4.6 mph - N/A   Mostly Cloudy
5:01 PM 26.6 °F 22.6 °F 17.6 °F 69% 30.59 in 10.0 mi NNE 3.5 mph - N/A   Scattered Clouds
5:39 PM 24.8 °F 20.5 °F 17.6 °F 74% 30.60 in 10.0 mi North 3.5 mph - N/A   Mostly Cloudy
5:53 PM 23.0 °F - 17.1 °F 78% 30.61 in 10.0 mi Calm Calm - N/A   Overcast
6:53 PM 23.0 °F 18.4 °F 17.1 °F 78% 30.63 in 10.0 mi ENE 3.5 mph - N/A   Partly Cloudy
7:53 PM 19.9 °F 13.4 °F 16.0 °F 85% 30.62 in 8.0 mi ENE 4.6 mph - N/A   Clear
8:53 PM 21.0 °F 14.6 °F 15.1 °F 78% 30.63 in 9.0 mi NE 4.6 mph - N/A   Clear
9:53 PM 19.0 °F 13.9 °F 15.1 °F 85% 30.62 in 8.0 mi NE 3.5 mph - N/A   Clear
10:53 PM 19.0 °F 12.3 °F 14.0 °F 81% 30.61 in 9.0 mi NNE 4.6 mph - N/A   Clear
11:53 PM 19.9 °F 10.1 °F 14.0 °F 78% 30.57 in 10.0 mi NE 8.1 mph - N/A   Clear